Location: Newark
(49.5647°N, 8.2922°E)
Time: 14:25:18
(UTC+00:00)

Transit 2A - Pass Details

Date: 19 February 2020
Orbit: 597 x 962 km, 66.7° (Epoch: 04 April)

Event Time Altitude Azimuth Distance (km) Brightness Sun altitude
Rises 19:10:29 0° 325° (NW) 2,964 9.7 -23.0°
Reaches altitude 10° 19:13:39 10° 349° (NNW) 2,112 8.5 -23.6°
Enters shadow 19:16:08 15° 20° (NNE) 1,831 7.9 -23.9°
Maximum altitude 19:16:28 15° 25° (NNE) 1,832 - -24.0°
Drops below altitude 10° 19:19:26 10° 61° (ENE) 2,238 - -24.5°
Sets 19:22:56 0° 84° (E) 3,246 - -25.0°
